Change the Weather History Date:

Tuesday, October 18, 2011

  Actual Average Record
Temperature  
Mean Temperature 58 °F -  
Max Temperature 68 °F 74 °F 97 °F (1972)
Min Temperature 50 °F 48 °F 26 °F (1948)
Degree Days  
Heating Degree Days 7    
Growing Degree Days 8 (Base 50)    
Moisture  
Dew Point 32 °F    
Average Humidity 41    
Maximum Humidity 68    
Minimum Humidity 21    
Precipitation  
Precipitation 0.00 in - - ()
Sea Level Pressure  
Sea Level Pressure 30.09 in    
Wind  
Wind Speed 20 mph (NNW)    
Max Wind Speed 28 mph    
Max Gust Speed 38 mph    
Visibility 10 miles    
Events      
Averages and records for this station are not official NWS values.
T = Trace of Precipitation, MM = Missing Value Source: NWS Daily Summary

Daily Weather History Graph

Daily Weather History Graph

Search for Another Location

Airport or City:

Trip Planner

Search our weather history database for the weather conditions in past years. The results will help you decide how hot, cold, wet, or windy it might be!

Date:

Astronomy

Oct. 18, 2011 Rise Set
Actual Time 7:41 AM CDT 6:55 PM CDT
Civil Twilight 7:16 AM CDT 7:21 PM CDT
Nautical Twilight 6:46 AM CDT 7:50 PM CDT
Astronomical Twilight 6:17 AM CDT 8:19 PM CDT
Moon 11:46 PM CDT (10/18) 1:24 PM CDT (10/18)
Length of Visible Light 12h 05m
Length of Day
11h 14m
Waning Gibbous, 64% of the Moon is Illuminated
Oct 18
Waning Gibbous
Oct 19
Last Quarter
Oct 26
New
Nov 2
First Quarter
Nov 10
Full

Hourly Weather History & Observations

Time (CDT) Temp. Dew Point Humidity Pressure Visibility Wind Dir Wind Speed Gust Speed Precip Events Conditions
12:53 AM 57.0 °F 28.0 °F 33% 29.96 in 10.0 mi North 27.6 mph 38.0 mph N/A   Clear
1:53 AM 55.9 °F 33.1 °F 42% 29.99 in 10.0 mi North 23.0 mph 34.5 mph N/A   Clear
2:53 AM 54.0 °F 33.1 °F 45% 29.99 in 10.0 mi North 24.2 mph 35.7 mph N/A   Clear
3:53 AM 53.1 °F 35.1 °F 50% 30.02 in 10.0 mi North 17.3 mph 26.5 mph N/A   Clear
4:53 AM 52.0 °F 37.9 °F 59% 30.04 in 10.0 mi North 20.7 mph 28.8 mph N/A   Clear
5:53 AM 51.1 °F 39.0 °F 63% 30.06 in 10.0 mi North 13.8 mph 24.2 mph N/A   Clear
6:53 AM 50.0 °F 39.9 °F 68% 30.09 in 10.0 mi NNW 9.2 mph - N/A   Clear
7:53 AM 50.0 °F 39.9 °F 68% 30.10 in 10.0 mi North 12.7 mph 21.9 mph N/A   Clear
8:53 AM 51.1 °F 41.0 °F 68% 30.13 in 10.0 mi NNW 12.7 mph 25.3 mph N/A   Partly Cloudy
9:53 AM 55.0 °F 39.0 °F 55% 30.15 in 10.0 mi North 23.0 mph 29.9 mph N/A   Clear
10:53 AM 57.9 °F 37.0 °F 46% 30.16 in 10.0 mi North 16.1 mph 27.6 mph N/A   Clear
11:53 AM 61.0 °F 35.1 °F 38% 30.15 in 10.0 mi North 17.3 mph 25.3 mph N/A   Clear
12:53 PM 63.0 °F 30.0 °F 29% 30.13 in 10.0 mi NNW 23.0 mph 32.2 mph N/A   Clear
1:53 PM 66.0 °F 27.0 °F 23% 30.09 in 10.0 mi North 25.3 mph 35.7 mph N/A   Clear
2:53 PM 66.0 °F 26.1 °F 22% 30.07 in 10.0 mi NNW 16.1 mph 32.2 mph N/A   Clear
4:53 PM 66.9 °F 26.1 °F 21% 30.06 in 10.0 mi NNW 19.6 mph 32.2 mph N/A   Clear
5:53 PM 64.9 °F 25.0 °F 22% 30.06 in 10.0 mi NNW 23.0 mph 33.4 mph N/A   Clear
6:53 PM 62.1 °F 26.1 °F 25% 30.08 in 10.0 mi North 16.1 mph 28.8 mph N/A   Clear
7:53 PM 59.0 °F 25.0 °F 27% 30.11 in 10.0 mi NNW 13.8 mph - N/A   Clear
8:53 PM 57.9 °F 27.0 °F 31% 30.12 in 10.0 mi NNW 12.7 mph - N/A   Clear
9:53 PM 55.9 °F 28.0 °F 34% 30.13 in 10.0 mi North 13.8 mph - N/A   Clear
10:53 PM 55.0 °F 28.0 °F 35% 30.14 in 10.0 mi NNW 12.7 mph - N/A   Clear
11:53 PM 54.0 °F 28.0 °F 37% 30.14 in 10.0 mi NNW 9.2 mph - N/A   Clear